McGuire AFB, NJ

5:10 PM EDT on July 23, 2017 (GMT -0400)
McGuire Air Force Base

Weather History for KWRI - May, 2013

Change the Weather History Date:

Thursday, May 23, 2013

  Actual Average Record
Temperature  
Mean Temperature 74 °F -  
Max Temperature 83 °F 70 °F 89 °F (2004)
Min Temperature 66 °F 51 °F 41 °F (2002)
Cooling Degree Days 8    
Growing Degree Days 24 (Base 50)    
Moisture  
Dew Point 67 °F    
Average Humidity 88    
Maximum Humidity 100    
Minimum Humidity 60    
Precipitation  
Precipitation 0.11 in - - ()
Sea Level Pressure  
Sea Level Pressure 29.82 in    
Wind  
Wind Speed 11 mph (South)    
Max Wind Speed 24 mph    
Max Gust Speed 33 mph    
Visibility 9 miles    
Events Rain , Thunderstorm    
Averages and records for this station are not official NWS values.
T = Trace of Precipitation, MM = Missing Value Source: NWS Daily Summary

Daily Weather History Graph

Daily Weather History Graph

Search for Another Location

Airport or City:

Trip Planner

Search our weather history database for the weather conditions in past years. The results will help you decide how hot, cold, wet, or windy it might be!

Date:

Astronomy

May. 23, 2013 Rise Set
Actual Time 5:36 AM EDT 8:14 PM EDT
Civil Twilight 5:05 AM EDT 8:45 PM EDT
Nautical Twilight 4:25 AM EDT 9:25 PM EDT
Astronomical Twilight 3:41 AM EDT 10:09 PM EDT
Moon 6:43 PM EDT 4:19 AM EDT
Length of Visible Light 15h 40m
Length of Day
14h 37m
Waxing Gibbous, 97% of the Moon is Illuminated
May 23
Waxing Gibbous
May 25
Full
May 31
Last Quarter
Jun 8
New
Jun 16
First Quarter

Hourly Weather History & Observations

Time (EDT) Temp. Heat Index Dew Point Humidity Pressure Visibility Wind Dir Wind Speed Gust Speed Precip Events Conditions
12:58 AM 69.6 °F - 66.4 °F 89% 29.88 in 10.0 mi South 10.4 mph - N/A   Overcast
1:33 AM 69.8 °F - 66.2 °F 88% 29.88 in 10.0 mi SSW 12.7 mph - N/A Thunderstorm Thunderstorm
1:38 AM 69.8 °F - 66.2 °F 88% 29.88 in 10.0 mi SSW 11.5 mph - N/A Rain , Thunderstorm Light Thunderstorms and Rain
1:48 AM 69.8 °F - 66.2 °F 88% 29.87 in 9.0 mi SSW 5.8 mph - N/A   Mostly Cloudy
1:56 AM 69.8 °F - 66.2 °F 88% 29.87 in 10.0 mi SSW 6.9 mph - N/A Rain Light Rain
1:58 AM 69.8 °F - 66.2 °F 88% 29.88 in 10.0 mi SSW 6.9 mph - 0.00 in Rain Light Rain
2:11 AM 69.8 °F - 66.2 °F 88% 29.86 in 10.0 mi South 6.9 mph - N/A   Mostly Cloudy
2:22 AM 68.0 °F - 66.2 °F 94% 29.86 in 10.0 mi South 5.8 mph - N/A Rain Light Rain
2:26 AM 68.0 °F - 68.0 °F 100% 29.86 in 9.0 mi South 6.9 mph - N/A Rain Light Rain
2:33 AM 68.0 °F - 68.0 °F 100% 29.86 in 9.0 mi South 5.8 mph - N/A Rain Light Rain
2:35 AM 68.0 °F - 68.0 °F 100% 29.86 in 10.0 mi South 6.9 mph - N/A   Mostly Cloudy
2:48 AM 68.0 °F - 68.0 °F 100% 29.86 in 10.0 mi South 8.1 mph - N/A Rain Light Rain
2:58 AM 68.4 °F - 67.6 °F 98% 29.87 in 10.0 mi South 8.1 mph - 0.01 in Rain Light Rain
3:02 AM 68.0 °F - 68.0 °F 100% 29.86 in 10.0 mi South 6.9 mph - N/A   Mostly Cloudy
3:58 AM 68.9 °F - 68.0 °F 97% 29.86 in 10.0 mi SSW 10.4 mph - 0.01 in   Overcast
4:58 AM 69.1 °F - 68.0 °F 96% 29.87 in 10.0 mi South 10.4 mph - N/A   Mostly Cloudy
5:58 AM 69.1 °F - 68.2 °F 97% 29.88 in 10.0 mi South 10.4 mph - N/A   Overcast
6:36 AM 69.8 °F - 68.0 °F 94% 29.88 in 10.0 mi SSW 10.4 mph - N/A   Mostly Cloudy
6:58 AM 70.2 °F - 68.4 °F 94% 29.90 in 10.0 mi South 12.7 mph - N/A   Overcast
7:16 AM 71.6 °F - 68.0 °F 88% 29.89 in 10.0 mi SSW 13.8 mph - N/A   Overcast
7:41 AM 71.6 °F - 68.0 °F 88% 29.89 in 10.0 mi South 13.8 mph 18.4 mph N/A   Mostly Cloudy
7:58 AM 71.8 °F - 68.0 °F 88% 29.90 in 10.0 mi South 13.8 mph - N/A   Mostly Cloudy
8:19 AM 73.4 °F - 68.0 °F 83% 29.89 in 10.0 mi SSW 15.0 mph 20.7 mph N/A   Overcast
8:58 AM 74.5 °F - 68.0 °F 80% 29.90 in 10.0 mi SSW 13.8 mph - N/A   Overcast
9:58 AM 76.6 °F - 68.4 °F 75% 29.90 in 10.0 mi SSW 12.7 mph - N/A   Overcast
9:59 AM 77.0 °F - 68.0 °F 74% 29.89 in 10.0 mi SW 12.7 mph - N/A   Overcast
10:08 AM 75.2 °F - 68.0 °F 78% 29.89 in 10.0 mi SSW 15.0 mph 20.7 mph N/A   Overcast
10:15 AM 77.0 °F - 68.0 °F 74% 29.89 in 10.0 mi South 13.8 mph 20.7 mph N/A   Overcast
10:58 AM 77.2 °F - 67.6 °F 72% 29.89 in 10.0 mi South 15.0 mph 23.0 mph N/A   Overcast
11:30 AM 78.8 °F - 68.0 °F 69% 29.88 in 10.0 mi SSW 17.3 mph 23.0 mph N/A   Overcast
11:54 AM 78.8 °F - 66.2 °F 65% 29.87 in 10.0 mi SW 19.6 mph 26.5 mph N/A Rain Light Rain
11:58 AM 78.6 °F - 66.9 °F 67% 29.88 in 10.0 mi SW 18.4 mph 26.5 mph 0.00 in Rain Light Rain
12:03 PM 78.8 °F - 68.0 °F 69% 29.87 in 10.0 mi SW 19.6 mph 24.2 mph N/A   Mostly Cloudy
12:58 PM 80.8 °F 83.2 °F 67.3 °F 63% 29.86 in 10.0 mi SSW 23.0 mph 27.6 mph 0.00 in   Mostly Cloudy
1:58 PM 81.5 °F 83.7 °F 66.4 °F 60% 29.82 in 10.0 mi SSW 23.0 mph 33.4 mph N/A   Mostly Cloudy
2:56 PM 78.8 °F - 66.2 °F 65% 29.82 in 10.0 mi SW 24.2 mph 28.8 mph N/A Rain Light Rain
2:58 PM 78.8 °F - 66.2 °F 65% 29.83 in 10.0 mi SW 21.9 mph 28.8 mph N/A Rain Light Rain
3:15 PM 75.2 °F - 68.0 °F 78% 29.82 in 10.0 mi WSW 12.7 mph - N/A   Partly Cloudy
3:58 PM 74.8 °F - 68.2 °F 80% 29.82 in 10.0 mi WSW 10.4 mph - 0.00 in   Overcast
4:58 PM 77.9 °F - 67.1 °F 69% 29.80 in 10.0 mi South 12.7 mph 23.0 mph N/A   Mostly Cloudy
5:25 PM 77.0 °F - 68.0 °F 74% 29.79 in 10.0 mi South 12.7 mph - N/A Rain Light Rain
5:33 PM 75.2 °F - 68.0 °F 78% 29.79 in 2.5 mi SSW 15.0 mph - N/A Rain Light Rain
5:38 PM 73.4 °F - 68.0 °F 83% 29.79 in 3.0 mi South 15.0 mph 24.2 mph N/A Rain Light Rain
5:44 PM 73.4 °F - 68.0 °F 83% 29.79 in 10.0 mi South 10.4 mph 24.2 mph N/A   Mostly Cloudy
5:58 PM 73.8 °F - 68.9 °F 85% 29.80 in 10.0 mi South 10.4 mph - 0.00 in   Mostly Cloudy
6:58 PM 72.0 °F - 66.9 °F 84% 29.80 in 10.0 mi South 12.7 mph - N/A   Mostly Cloudy
7:17 PM 71.6 °F - 66.2 °F 83% 29.79 in 10.0 mi South 10.4 mph - N/A   Mostly Cloudy
7:39 PM 69.8 °F - 66.2 °F 88% 29.79 in 10.0 mi South 12.7 mph - N/A   Mostly Cloudy
7:48 PM 69.8 °F - 66.2 °F 88% 29.79 in 10.0 mi South 8.1 mph - N/A   Mostly Cloudy
7:54 PM 69.8 °F - 66.2 °F 88% 29.79 in 10.0 mi South 12.7 mph 17.3 mph N/A   Mostly Cloudy
7:55 PM 69.8 °F - 66.2 °F 88% 29.79 in 10.0 mi South 10.4 mph 17.3 mph N/A   Mostly Cloudy
7:58 PM 69.8 °F - 65.7 °F 87% 29.80 in 10.0 mi South 9.2 mph 17.3 mph N/A   Mostly Cloudy
8:35 PM 69.8 °F - 64.4 °F 83% 29.80 in 10.0 mi South 13.8 mph - N/A   Overcast
8:38 PM 69.8 °F - 64.4 °F 83% 29.80 in 10.0 mi South 11.5 mph - N/A   Overcast
8:57 PM 69.8 °F - 66.2 °F 88% 29.79 in 10.0 mi South 10.4 mph - N/A   Overcast
8:58 PM 69.8 °F - 66.2 °F 88% 29.80 in 10.0 mi South 10.4 mph - N/A   Overcast
9:22 PM 68.0 °F - 66.2 °F 94% 29.78 in 10.0 mi South 10.4 mph - N/A   Overcast
9:40 PM 68.0 °F - 66.2 °F 94% 29.78 in 10.0 mi South 9.2 mph - N/A   Overcast
9:53 PM 68.0 °F - 66.2 °F 94% 29.77 in 10.0 mi South 12.7 mph 19.6 mph N/A   Overcast
9:58 PM 67.8 °F - 65.8 °F 93% 29.79 in 10.0 mi South 10.4 mph 19.6 mph N/A   Overcast
9:59 PM 68.0 °F - 66.2 °F 94% 29.78 in 10.0 mi South 11.5 mph 19.6 mph N/A   Overcast
10:35 PM 68.0 °F - 66.2 °F 94% 29.77 in 10.0 mi South 10.4 mph - N/A   Overcast
10:58 PM 67.3 °F - 65.5 °F 94% 29.78 in 10.0 mi Variable 6.9 mph - N/A   Overcast
11:30 PM 68.0 °F - 66.2 °F 94% 29.76 in 10.0 mi South 8.1 mph - N/A   Overcast
11:34 PM 68.0 °F - 66.2 °F 94% 29.76 in 10.0 mi South 6.9 mph - N/A Rain Light Rain
11:37 PM 66.2 °F - 66.2 °F 100% 29.75 in 7.0 mi South 8.1 mph - N/A Rain Heavy Rain
11:39 PM 66.2 °F - 66.2 °F 100% 29.75 in 5.0 mi South 10.4 mph - N/A Rain Heavy Rain
11:40 PM 66.2 °F - 66.2 °F 100% 29.75 in 4.0 mi SSE 10.4 mph - N/A Rain Heavy Rain
11:42 PM 66.2 °F - 66.2 °F 100% 29.75 in 3.0 mi SSE 8.1 mph - N/A Rain Light Rain
11:43 PM 66.2 °F - 66.2 °F 100% 29.75 in 2.5 mi SSE 8.1 mph - N/A Rain Light Rain
11:44 PM 66.2 °F - 66.2 °F 100% 29.75 in 2.5 mi SSE 9.2 mph - N/A Rain Light Rain
11:47 PM 66.2 °F - 66.2 °F 100% 29.75 in 2.5 mi SSE 5.8 mph - N/A Rain Light Rain
11:48 PM 66.2 °F - 66.2 °F 100% 29.75 in 3.0 mi SSE 6.9 mph - N/A Rain Light Rain
11:49 PM 66.2 °F - 66.2 °F 100% 29.75 in 3.0 mi SSE 8.1 mph - N/A Rain Light Rain
11:51 PM 66.2 °F - 66.2 °F 100% 29.75 in 5.0 mi SSE 6.9 mph - N/A Rain Light Rain
11:52 PM 66.2 °F - 66.2 °F 100% 29.75 in 7.0 mi SSE 8.1 mph - N/A Rain Light Rain
11:54 PM 66.2 °F - 66.2 °F 100% 29.75 in 9.0 mi South 8.1 mph - N/A Rain Light Rain
11:55 PM 66.2 °F - 66.2 °F 100% 29.75 in 10.0 mi South 8.1 mph - N/A   Overcast
11:58 PM 66.2 °F - 66.2 °F 100% 29.75 in 10.0 mi South 8.1 mph - 0.09 in   Overcast